Time,TemperatureF,DewpointF,PressureIn,WindDirection,WindDirectionDegrees,WindSpeedMPH,WindSpeedGustMPH,Humidity,HourlyPrecipIn,Conditions,Clouds,dailyrainin,SolarRadiationWatts/m^2,SoftwareType,DateUTC
2013-05-09 00:01:00,56.0,55.0,-100.00,South,173,0.0,8.0,96,0.00,,,0.27,0.000000,,2013-05-09 04:01:00,
2013-05-09 00:23:00,56.0,55.0,-100.00,South,173,0.0,8.0,96,0.00,,,0.27,0.000000,,2013-05-09 04:23:00,
2013-05-09 00:33:00,56.0,55.0,-100.00,South,173,0.0,8.0,96,0.00,,,0.27,0.000000,,2013-05-09 04:33:00,
2013-05-09 00:43:00,56.0,55.0,-100.00,South,173,0.0,8.0,96,0.00,,,0.27,0.000000,,2013-05-09 04:43:00,
2013-05-09 00:53:00,56.0,55.0,-100.00,South,173,0.0,8.0,96,0.00,,,0.27,0.000000,,2013-05-09 04:53:00,
2013-05-09 01:01:00,56.0,55.0,-100.00,East,97,2.0,5.0,97,0.00,,,0.27,0.000000,,2013-05-09 05:01:00,
2013-05-09 01:32:00,56.0,55.0,-100.00,East,97,2.0,5.0,97,0.00,,,0.27,0.000000,,2013-05-09 05:32:00,
2013-05-09 01:43:00,56.0,55.0,-100.00,East,97,2.0,5.0,97,0.00,,,0.27,0.000000,,2013-05-09 05:43:00,
2013-05-09 01:52:00,56.0,55.0,-100.00,East,97,2.0,5.0,97,0.00,,,0.27,0.000000,,2013-05-09 05:52:00,
2013-05-09 02:01:00,55.0,54.0,-100.00,SE,146,1.0,8.0,96,0.00,,,0.27,0.000000,,2013-05-09 06:01:00,
2013-05-09 02:32:00,55.0,54.0,-100.00,SE,146,1.0,8.0,96,0.00,,,0.27,0.000000,,2013-05-09 06:32:00,
2013-05-09 02:42:00,55.0,54.0,-100.00,SE,146,1.0,8.0,96,0.00,,,0.27,0.000000,,2013-05-09 06:42:00,
2013-05-09 02:52:00,55.0,54.0,-100.00,SE,146,1.0,8.0,96,0.00,,,0.27,0.000000,,2013-05-09 06:52:00,
2013-05-09 03:01:00,53.0,52.0,-100.00,ESE,116,1.0,4.0,98,0.00,,,0.27,0.000000,,2013-05-09 07:01:00,
2013-05-09 03:32:00,53.0,52.0,-100.00,ESE,116,1.0,4.0,98,0.00,,,0.27,0.000000,,2013-05-09 07:32:00,
2013-05-09 03:43:00,53.0,52.0,-100.00,ESE,116,1.0,4.0,98,0.00,,,0.27,0.000000,,2013-05-09 07:43:00,
2013-05-09 03:52:00,53.0,52.0,-100.00,ESE,116,1.0,4.0,98,0.00,,,0.27,0.000000,,2013-05-09 07:52:00,
2013-05-09 04:01:00,50.0,49.0,-100.00,SE,133,1.0,5.0,98,0.00,,,0.27,0.000000,,2013-05-09 08:01:00,
2013-05-09 04:32:00,50.0,49.0,-100.00,SE,133,1.0,5.0,98,0.00,,,0.27,0.000000,,2013-05-09 08:32:00,
2013-05-09 04:42:00,50.0,49.0,-100.00,SE,133,1.0,5.0,98,0.00,,,0.27,0.000000,,2013-05-09 08:42:00,
2013-05-09 04:52:00,50.0,49.0,-100.00,SE,133,1.0,5.0,98,0.00,,,0.27,0.000000,,2013-05-09 08:52:00,
2013-05-09 05:01:00,47.0,46.0,-100.00,ESE,119,3.0,5.0,98,0.00,,,0.27,0.000000,,2013-05-09 09:01:00,
2013-05-09 05:32:00,47.0,46.0,-100.00,ESE,119,3.0,5.0,98,0.00,,,0.27,0.000000,,2013-05-09 09:32:00,
2013-05-09 05:43:00,47.0,46.0,-100.00,ESE,119,3.0,5.0,98,0.00,,,0.27,0.000000,,2013-05-09 09:43:00,
2013-05-09 05:53:00,47.0,46.0,-100.00,ESE,119,3.0,5.0,98,0.00,,,0.27,0.000000,,2013-05-09 09:53:00,
2013-05-09 06:01:00,45.0,44.0,-100.00,East,101,1.0,5.0,98,0.00,,,0.27,2.000000,,2013-05-09 10:01:00,
2013-05-09 06:33:00,45.0,44.0,-100.00,East,101,1.0,5.0,98,0.00,,,0.27,2.000000,,2013-05-09 10:33:00,
2013-05-09 06:42:00,45.0,44.0,-100.00,East,101,1.0,5.0,98,0.00,,,0.27,2.000000,,2013-05-09 10:42:00,
2013-05-09 06:53:00,45.0,44.0,-100.00,East,101,1.0,5.0,98,0.00,,,0.27,2.000000,,2013-05-09 10:53:00,
2013-05-09 07:01:00,50.0,49.0,-100.00,ENE,61,1.0,4.0,96,0.00,,,0.27,89.000000,,2013-05-09 11:01:00,
2013-05-09 07:32:00,50.0,49.0,-100.00,ENE,61,1.0,4.0,96,0.00,,,0.27,89.000000,,2013-05-09 11:32:00,
2013-05-09 07:42:00,50.0,49.0,-100.00,ENE,61,1.0,4.0,96,0.00,,,0.27,89.000000,,2013-05-09 11:42:00,
2013-05-09 07:52:00,50.0,49.0,-100.00,ENE,61,1.0,4.0,96,0.00,,,0.27,89.000000,,2013-05-09 11:52:00,
2013-05-09 08:01:00,57.0,50.0,-100.00,NE,38,3.0,5.0,76,0.01,,,0.28,249.000000,,2013-05-09 12:01:00,
2013-05-09 08:32:00,57.0,50.0,-100.00,NE,38,3.0,5.0,76,0.01,,,0.28,249.000000,,2013-05-09 12:32:00,
2013-05-09 08:43:00,57.0,50.0,-100.00,NE,38,3.0,5.0,76,0.01,,,0.28,249.000000,,2013-05-09 12:43:00,
2013-05-09 08:52:00,57.0,50.0,-100.00,NE,38,3.0,5.0,76,0.01,,,0.28,249.000000,,2013-05-09 12:52:00,
2013-05-09 09:01:00,62.0,49.0,-100.00,North,3,1.0,5.0,63,0.00,,,0.28,374.000000,,2013-05-09 13:01:00,
2013-05-09 09:32:00,62.0,49.0,-100.00,North,3,1.0,5.0,63,0.00,,,0.28,374.000000,,2013-05-09 13:32:00,
2013-05-09 09:42:00,62.0,49.0,-100.00,North,3,1.0,5.0,63,0.00,,,0.28,374.000000,,2013-05-09 13:42:00,
2013-05-09 09:52:00,62.0,49.0,-100.00,North,3,1.0,5.0,63,0.00,,,0.28,374.000000,,2013-05-09 13:52:00,
2013-05-09 10:01:00,63.0,47.0,-100.00,WSW,258,2.0,5.0,56,0.00,,,0.28,422.000000,,2013-05-09 14:01:00,
2013-05-09 10:32:00,63.0,47.0,-100.00,WSW,258,2.0,5.0,56,0.00,,,0.28,422.000000,,2013-05-09 14:32:00,
2013-05-09 10:42:00,63.0,47.0,-100.00,WSW,258,2.0,5.0,56,0.00,,,0.28,422.000000,,2013-05-09 14:42:00,
2013-05-09 10:52:00,63.0,47.0,-100.00,WSW,258,2.0,5.0,56,0.00,,,0.28,422.000000,,2013-05-09 14:52:00,
2013-05-09 11:01:00,63.0,49.0,-100.00,SSE,167,2.0,5.0,60,0.00,,,0.28,360.000000,,2013-05-09 15:01:00,
2013-05-09 11:33:00,63.0,49.0,-100.00,SSE,167,2.0,5.0,60,0.00,,,0.28,360.000000,,2013-05-09 15:33:00,
2013-05-09 11:43:00,63.0,49.0,-100.00,SSE,167,2.0,5.0,60,0.00,,,0.28,360.000000,,2013-05-09 15:43:00,
2013-05-09 11:53:00,63.0,49.0,-100.00,SSE,167,2.0,5.0,60,0.00,,,0.28,360.000000,,2013-05-09 15:53:00,
2013-05-09 12:01:00,64.0,48.0,-100.00,South,191,2.0,8.0,56,0.00,,,0.28,303.000000,,2013-05-09 16:01:00,
2013-05-09 12:33:00,64.0,48.0,-100.00,South,191,2.0,8.0,56,0.00,,,0.28,303.000000,,2013-05-09 16:33:00,
2013-05-09 12:42:00,64.0,48.0,-100.00,South,191,2.0,8.0,56,0.00,,,0.28,303.000000,,2013-05-09 16:42:00,
2013-05-09 12:53:00,64.0,48.0,-100.00,South,191,2.0,8.0,56,0.00,,,0.28,303.000000,,2013-05-09 16:53:00,
2013-05-09 13:01:00,68.0,46.0,-100.00,SW,222,3.0,9.0,46,0.00,,,0.28,637.000000,,2013-05-09 17:01:00,
2013-05-09 13:32:00,68.0,46.0,-100.00,SW,222,3.0,9.0,46,0.00,,,0.28,637.000000,,2013-05-09 17:32:00,
2013-05-09 13:42:00,68.0,46.0,-100.00,SW,222,3.0,9.0,46,0.00,,,0.28,637.000000,,2013-05-09 17:42:00,
2013-05-09 13:55:00,68.0,46.0,-100.00,SW,222,3.0,9.0,46,0.00,,,0.28,637.000000,,2013-05-09 17:55:00,
2013-05-09 14:01:00,71.0,42.0,-100.00,South,190,3.0,10.0,35,0.00,,,0.28,877.000000,,2013-05-09 18:01:00,
2013-05-09 14:22:00,71.0,42.0,-100.00,South,190,3.0,10.0,35,0.00,,,0.28,877.000000,,2013-05-09 18:22:00,
2013-05-09 14:32:00,71.0,42.0,-100.00,South,190,3.0,10.0,35,0.00,,,0.28,877.000000,,2013-05-09 18:32:00,
2013-05-09 14:42:00,71.0,42.0,-100.00,South,190,3.0,10.0,35,0.00,,,0.28,877.000000,,2013-05-09 18:42:00,
2013-05-09 14:52:00,71.0,42.0,-100.00,South,190,3.0,10.0,35,0.00,,,0.28,877.000000,,2013-05-09 18:52:00,
2013-05-09 15:01:00,71.0,40.0,-100.00,NW,322,3.0,10.0,32,0.00,,,-99.99,637.000000,,2013-05-09 19:01:00,
2013-05-09 15:32:00,71.0,40.0,-100.00,NW,322,3.0,10.0,32,0.00,,,-99.99,637.000000,,2013-05-09 19:32:00,
2013-05-09 15:42:00,71.0,40.0,-100.00,NW,322,3.0,10.0,32,0.00,,,-99.99,637.000000,,2013-05-09 19:42:00,
2013-05-09 15:52:00,71.0,40.0,-100.00,NW,322,3.0,10.0,32,0.00,,,-99.99,637.000000,,2013-05-09 19:52:00,
2013-05-09 16:01:00,67.0,41.0,-100.00,WNW,283,4.0,9.0,38,0.00,,,0.28,285.000000,,2013-05-09 20:01:00,
2013-05-09 16:32:00,67.0,41.0,-100.00,WNW,283,4.0,9.0,38,0.00,,,0.28,285.000000,,2013-05-09 20:32:00,
2013-05-09 16:42:00,67.0,41.0,-100.00,WNW,283,4.0,9.0,38,0.00,,,0.28,285.000000,,2013-05-09 20:42:00,
2013-05-09 16:52:00,67.0,41.0,-100.00,WNW,283,4.0,9.0,38,0.00,,,0.28,285.000000,,2013-05-09 20:52:00,
2013-05-09 17:01:00,66.0,45.0,-100.00,SW,224,1.0,5.0,46,0.00,,,0.28,89.000000,,2013-05-09 21:01:00,
2013-05-09 17:33:00,66.0,45.0,-100.00,SW,224,1.0,5.0,46,0.00,,,0.28,89.000000,,2013-05-09 21:33:00,
2013-05-09 17:43:00,66.0,45.0,-100.00,SW,224,1.0,5.0,46,0.00,,,0.28,89.000000,,2013-05-09 21:43:00,
2013-05-09 17:53:00,66.0,45.0,-100.00,SW,224,1.0,5.0,46,0.00,,,0.28,89.000000,,2013-05-09 21:53:00,
2013-05-09 18:01:00,61.0,50.0,-100.00,ENE,68,4.0,14.0,68,0.00,,,0.24,155.000000,,2013-05-09 22:01:00,
2013-05-09 18:33:00,61.0,50.0,-100.00,ENE,68,4.0,14.0,68,0.00,,,0.24,155.000000,,2013-05-09 22:33:00,
2013-05-09 18:42:00,61.0,50.0,-100.00,ENE,68,4.0,14.0,68,0.00,,,0.24,155.000000,,2013-05-09 22:42:00,
2013-05-09 18:52:00,61.0,50.0,-100.00,ENE,68,4.0,14.0,68,0.00,,,0.24,155.000000,,2013-05-09 22:52:00,
2013-05-09 19:01:00,57.0,53.0,-100.00,SW,216,1.0,12.0,85,0.04,,,0.19,82.000000,,2013-05-09 23:01:00,
2013-05-09 19:32:00,57.0,53.0,-100.00,SW,216,1.0,12.0,85,0.04,,,0.19,82.000000,,2013-05-09 23:32:00,
2013-05-09 19:42:00,57.0,53.0,-100.00,SW,216,1.0,12.0,85,0.04,,,0.19,82.000000,,2013-05-09 23:42:00,
2013-05-09 19:52:00,57.0,53.0,-100.00,SW,216,1.0,12.0,85,0.04,,,0.19,82.000000,,2013-05-09 23:52:00,
2013-05-09 20:01:00,55.0,53.0,-100.00,SSE,164,0.0,8.0,94,0.01,,,0.18,23.000000,,2013-05-10 00:01:00,
2013-05-09 20:22:00,55.0,53.0,-100.00,SSE,164,0.0,8.0,94,0.01,,,0.18,23.000000,,2013-05-10 00:22:00,
2013-05-09 20:32:00,55.0,53.0,-100.00,SSE,164,0.0,8.0,94,0.01,,,0.18,23.000000,,2013-05-10 00:32:00,
2013-05-09 20:42:00,55.0,53.0,-100.00,SSE,164,0.0,8.0,94,0.01,,,0.18,23.000000,,2013-05-10 00:42:00,
2013-05-09 20:52:00,55.0,53.0,-100.00,SSE,164,0.0,8.0,94,0.01,,,0.18,23.000000,,2013-05-10 00:52:00,
2013-05-09 21:01:00,54.0,53.0,-100.00,SE,129,0.0,3.0,97,0.02,,,0.10,1.000000,,2013-05-10 01:01:00,
2013-05-09 21:22:00,54.0,53.0,-100.00,SE,129,0.0,3.0,97,0.02,,,0.10,1.000000,,2013-05-10 01:22:00,
2013-05-09 21:32:00,54.0,53.0,-100.00,SE,129,0.0,3.0,97,0.02,,,0.10,1.000000,,2013-05-10 01:32:00,
2013-05-09 21:42:00,54.0,53.0,-100.00,SE,129,0.0,3.0,97,0.02,,,0.10,1.000000,,2013-05-10 01:42:00,
2013-05-09 21:52:00,54.0,53.0,-100.00,SE,129,0.0,3.0,97,0.02,,,0.10,1.000000,,2013-05-10 01:52:00,
2013-05-09 22:01:00,53.0,52.0,-100.00,SSE,160,0.0,3.0,98,0.00,,,0.09,0.000000,,2013-05-10 02:01:00,
2013-05-09 22:21:00,53.0,52.0,-100.00,SSE,160,0.0,3.0,98,0.00,,,0.09,0.000000,,2013-05-10 02:21:00,
2013-05-09 22:32:00,53.0,52.0,-100.00,SSE,160,0.0,3.0,98,0.00,,,0.09,0.000000,,2013-05-10 02:32:00,
2013-05-09 22:42:00,53.0,52.0,-100.00,SSE,160,0.0,3.0,98,0.00,,,0.09,0.000000,,2013-05-10 02:42:00,
2013-05-09 22:52:00,53.0,52.0,-100.00,SSE,160,0.0,3.0,98,0.00,,,0.09,0.000000,,2013-05-10 02:52:00,
2013-05-09 23:01:00,51.0,50.0,-100.00,SE,126,0.0,1.0,98,0.00,,,0.08,0.000000,,2013-05-10 03:01:00,
2013-05-09 23:33:00,51.0,50.0,-100.00,SE,126,0.0,1.0,98,0.00,,,0.08,0.000000,,2013-05-10 03:33:00,
2013-05-09 23:43:00,51.0,50.0,-100.00,SE,126,0.0,1.0,98,0.00,,,0.08,0.000000,,2013-05-10 03:43:00,
2013-05-09 23:53:00,51.0,50.0,-100.00,SE,126,0.0,1.0,98,0.00,,,0.08,0.000000,,2013-05-10 03:53:00,